Location: Aurora Center
(43.5271°N, 98.5894°W)
Time: 09:03:21
(UTC-05:00)

Transit 2A - All Passes

Search period start: 14 July 2024 00:00
Search period end: 24 July 2024 00:00
Orbit: 591 x 960 km, 66.7° (Epoch: 13 July)

Date Brightness Start Highest point End Pass type
(mag) Time Alt. Az. Time Alt. Az. Time Alt. Az.
14 Jul - 10:57:06 10° SSW 11:02:07 59° ESE 11:07:44 10° NE daylight
14 Jul - 12:41:12 10° W 12:45:43 27° NW 12:50:37 10° NNE daylight
14 Jul - 17:59:26 10° N 18:03:36 18° NE 18:07:50 10° ENE daylight
14 Jul - 19:41:40 10° NNW 19:47:58 67° NE 19:54:15 10° SE daylight
14 Jul - 21:25:46 10° NW 21:30:40 24° WSW 21:35:31 10° SSW daylight
15 Jul - 10:22:15 10° S 10:27:00 39° ESE 10:32:14 10° NE daylight
15 Jul - 12:05:19 10° WSW 12:10:11 35° NW 12:15:32 10° NNE daylight
15 Jul - 13:53:54 10° NW 13:55:17 11° NNW 13:56:41 10° N daylight
15 Jul - 17:24:33 10° N 17:27:52 15° NNE 17:31:14 10° ENE daylight
15 Jul - 19:06:28 10° NNW 19:12:36 50° NE 19:18:42 10° SE daylight
15 Jul - 20:50:01 10° NW 20:55:37 34° WSW 21:01:10 10° S daylight
16 Jul - 09:47:41 10° SSE 09:51:57 27° ESE 09:56:34 10° NE daylight
16 Jul - 11:29:38 10° SW 11:34:44 49° NW 11:40:23 10° NNE daylight
16 Jul - 13:16:47 10° WNW 13:19:28 13° NNW 13:22:15 10° N daylight
16 Jul - 16:49:53 10° N 16:52:05 12° NNE 16:54:17 10° NE daylight
16 Jul - 18:31:19 10° NNW 18:37:08 37° NE 18:42:58 10° ESE daylight
16 Jul - 20:14:26 10° NW 20:20:30 48° WSW 20:26:28 10° S daylight
17 Jul - 09:13:34 10° SE 09:16:58 18° ESE 09:20:35 10° ENE daylight
17 Jul - 10:54:09 10° SW 10:59:21 69° NW 11:05:10 10° NNE daylight
17 Jul - 12:40:12 10° WNW 12:43:43 17° NNW 12:47:26 10° N daylight
17 Jul - 17:56:13 10° NNW 18:01:36 29° NE 18:07:01 10° ESE daylight
17 Jul - 19:39:01 10° NW 19:45:19 68° WSW 19:51:32 10° SSE daylight
17 Jul - 21:25:47 10° W 21:27:22 11° W 21:28:57 10° WSW daylight
18 Jul - 08:40:25 10° ESE 08:42:03 11° E 08:43:44 10° E daylight
18 Jul - 10:18:52 10° SSW 10:24:03 83° ESE 10:29:53 10° NNE daylight
18 Jul - 12:03:54 10° W 12:08:03 21° NW 12:12:29 10° N daylight
18 Jul - 17:21:10 10° NNW 17:26:01 22° NE 17:30:53 10° E daylight
18 Jul - 19:03:41 10° NNW 19:10:04 88° ENE 19:16:22 10° SSE daylight
18 Jul - 20:48:35 10° WNW 20:52:27 17° WSW 20:56:16 10° SW daylight
19 Jul - 09:43:47 10° SSW 09:48:51 57° ESE 09:54:30 10° NE daylight
19 Jul - 11:27:50 10° W 11:32:26 28° NW 11:37:27 10° NNE daylight
19 Jul - 16:46:12 10° N 16:50:20 18° NE 16:54:31 10° ENE daylight
19 Jul - 18:28:25 10° NNW 18:34:44 66° NE 18:40:59 10° SE daylight
19 Jul - 20:12:29 10° NW 20:17:27 25° WSW 20:22:20 10° SSW daylight
20 Jul - 09:08:57 10° S 09:13:44 39° ESE 09:19:00 10° NE daylight
20 Jul - 10:51:57 10° WSW 10:56:54 37° NW 11:02:20 10° NNE daylight
20 Jul - 12:40:18 10° NW 12:41:58 11° NNW 12:43:40 10° N daylight
20 Jul - 16:11:18 10° N 16:14:35 14° NNE 16:17:54 10° ENE daylight
20 Jul - 17:53:13 10° NNW 17:59:21 49° NE 18:05:25 10° SE daylight
20 Jul - 19:36:44 10° NW 19:42:23 35° WSW 19:47:56 10° S daylight
21 Jul - 08:34:24 10° SSE 08:38:41 26° ESE 08:43:19 10° NE daylight
21 Jul - 10:16:17 10° SW 10:21:26 50° NW 10:27:10 10° NNE daylight
21 Jul - 12:03:19 10° WNW 12:06:10 14° NNW 12:09:07 10° N daylight
21 Jul - 15:36:38 10° N 15:38:47 12° NNE 15:40:57 10° NE daylight
21 Jul - 17:18:04 10° NNW 17:23:53 37° NE 17:29:40 10° ESE daylight
21 Jul - 19:01:11 10° NW 19:07:16 49° WSW 19:13:14 10° S daylight
22 Jul - 08:00:18 10° SE 08:03:42 18° ESE 08:07:19 10° ENE daylight
22 Jul - 09:40:48 10° SW 09:46:04 71° WNW 09:51:57 10° NNE daylight
22 Jul - 11:26:46 10° WNW 11:30:25 17° NNW 11:34:16 10° N daylight
22 Jul - 16:42:58 10° NNW 16:48:21 28° NE 16:53:42 10° E daylight
22 Jul - 18:25:46 10° NW 18:32:04 69° WSW 18:38:16 10° SSE daylight
22 Jul - 20:12:18 10° W 20:14:08 11° W 20:15:58 10° WSW daylight
23 Jul - 07:27:14 10° ESE 07:28:47 11° E 07:30:23 10° E daylight
23 Jul - 09:05:31 10° SSW 09:10:46 81° ESE 09:16:39 10° NNE daylight
23 Jul - 10:50:29 10° W 10:54:44 22° NW 10:59:17 10° NNE daylight
23 Jul - 16:07:55 10° N 16:12:44 22° NE 16:17:33 10° E daylight
23 Jul - 17:50:25 10° NNW 17:56:49 87° ENE 18:03:05 10° SSE daylight
23 Jul - 19:35:16 10° WNW 19:39:12 17° WSW 19:43:05 10° SW daylight
